AF0GV-15 Weather Reports


time (UTC)temp
F
wind
direction
speed
knots
gust
knots
rain 1hr
in
rain 24hr
in
rain mn
in
humidity
%
barometer
mb
20260906175103 95 360 0.0 1.7 0.00 0.00 0.00 59 1014.7
20260906171926 95 360 0.0 0.0 0.00 0.00 0.00 58 1015.2
20260906164747 93 360 0.0 0.9 0.00 0.00 0.00 64 1015.5
20260906161609 92 360 0.0 0.0 0.00 0.00 0.00 64 1015.7
20260906160020 90 360 0.0 0.0 0.00 0.00 0.00 69 1015.8
20260906154430 89 355 0.9 2.6 0.00 0.00 0.00 70 1015.6
20260906152843 88 123 0.9 3.5 0.00 0.00 0.00 70 1015.3
20260906151253 87 360 0.0 1.7 0.00 0.00 0.00 71 1015.4
20260906144116 85 360 0.0 0.9 0.00 0.00 0.00 74 1015.6
20260906142526 84 360 0.0 1.7 0.00 0.00 0.00 77 1015.8
20260906140937 83 360 0.0 0.9 0.00 0.00 0.00 79 1015.8
20260906135350 81 360 0.0 0.9 0.00 0.00 0.00 83 1015.6
20260906132210 76 360 0.0 0.0 0.00 0.00 0.00 96 1015.4
20260906123443 71 360 0.0 0.0 0.00 0.00 0.00 96 1014.8
20260906121854 71 360 0.0 0.0 0.00 0.00 0.00 96 1014.8
20260906120305 71 360 0.0 0.0 0.00 0.00 0.00 96 1014.4
20260906114715 71 360 0.0 0.0 0.00 0.00 0.00 96 1014.5
20260906113129 71 360 0.0 0.0 0.00 0.00 0.00 96 1014.3
20260906111537 71 360 0.0 0.0 0.00 0.00 0.00 96 1014.1
20260906105948 71 360 0.0 0.0 0.00 0.00 0.00 96 1014.0
20260906104402 72 360 0.0 0.0 0.00 0.00 0.00 95 1014.0
20260906102810 72 360 0.0 0.0 0.00 0.00 0.00 96 1014.0
20260906101222 72 360 0.0 0.0 0.00 0.00 0.00 95 1014.0
20260906095632 72 360 0.0 0.0 0.00 0.00 0.00 95 1014.0
20260906094043 72 360 0.0 0.0 0.00 0.00 0.00 95 1013.8
20260906092456 72 360 0.0 0.0 0.00 0.00 0.00 94 1013.7
20260906090906 73 360 0.0 0.0 0.00 0.00 0.00 95 1013.5
20260906085317 73 360 0.0 0.0 0.00 0.00 0.00 94 1013.4
20260906083729 73 360 0.0 0.0 0.00 0.00 0.00 94 1013.3
20260906082140 73 360 0.0 0.0 0.00 0.00 0.00 94 1013.2
20260906075004 74 360 0.0 0.0 0.00 0.00 0.00 94 1013.3
20260906071823 74 360 0.0 0.0 0.00 0.00 0.00 93 1013.3
20260906070234 74 360 0.0 0.0 0.00 0.00 0.00 93 1013.5
20260906064644 74 360 0.0 0.0 0.00 0.00 0.00 93 1013.6
20260906063056 74 360 0.0 0.0 0.00 0.00 0.00 92 1013.7
20260906061508 75 360 0.0 0.0 0.00 0.00 0.00 92 1013.7
20260906055918 75 360 0.0 0.0 0.00 0.00 0.00 93 1013.8
20260906054329 76 360 0.0 0.0 0.00 0.00 0.00 92 1013.8
20260906052739 76 360 0.0 0.0 0.00 0.00 0.00 92 1013.8
20260906051151 76 360 0.0 0.0 0.00 0.00 0.00 91 1013.8
20260906045602 77 360 0.0 0.0 0.00 0.00 0.00 90 1013.7
20260906044012 77 360 0.0 0.0 0.00 0.00 0.00 90 1013.7
20260906042424 77 360 0.0 0.0 0.00 0.00 0.00 89 1013.8
20260906040835 78 360 0.0 0.0 0.00 0.00 0.00 89 1013.7
20260906035245 78 360 0.0 0.0 0.00 0.00 0.00 88 1013.5
20260906033657 79 360 0.0 0.0 0.00 0.00 0.00 88 1013.4
20260906030518 80 360 0.0 0.0 0.00 0.00 0.00 86 1013.0
20260906024930 81 360 0.0 0.0 0.00 0.00 0.00 85 1012.8
20260906023343 82 360 0.0 0.0 0.00 0.00 0.00 82 1012.6
20260906021751 82 360 0.0 0.0 0.00 0.00 0.00 81 1012.5
20260906020203 83 360 0.0 0.0 0.00 0.00 0.00 80 1012.2
20260906014614 84 360 0.0 0.0 0.00 0.00 0.00 80 1012.1
20260906013027 85 360 0.0 0.0 0.00 0.00 0.00 78 1012.0
20260906011437 86 360 0.0 0.0 0.00 0.00 0.00 77 1011.8
20260906005846 87 360 0.0 0.0 0.00 0.00 0.00 75 1011.8
20260906004258 89 360 0.0 0.0 0.00 0.00 0.00 72 1011.8
20260906002709 90 360 0.0 0.0 0.00 0.00 0.00 70 1011.8
20260906001120 92 360 0.0 0.0 0.00 0.00 0.00 66 1011.7
20260905235531 93 360 0.0 0.0 0.00 0.00 0.00 62 1011.7
20260905233941 95 360 0.0 0.0 0.00 0.00 0.00 56 1011.7
20260905232353 96 360 0.0 0.0 0.00 0.00 0.00 52 1011.6
20260905230803 96 360 0.0 0.0 0.00 0.00 0.00 52 1011.6
20260905225215 96 360 0.0 1.7 0.00 0.00 0.00 50 1011.6
20260905223626 97 360 0.0 0.0 0.00 0.00 0.00 50 1011.6
20260905222037 97 360 0.0 0.0 0.00 0.00 0.00 51 1011.8
20260905220448 98 360 0.0 0.0 0.00 0.00 0.00 50 1011.7
20260905214859 99 360 0.0 0.9 0.00 0.00 0.00 48 1011.9
20260905213309 100 360 0.0 0.9 0.00 0.00 0.00 49 1012.1
20260905211720 100 360 0.0 0.0 0.00 0.00 0.00 46 1012.2
20260905210134 99 360 0.0 0.0 0.00 0.00 0.00 47 1012.5
20260905204543 97 360 0.0 1.7 0.00 0.00 0.00 50 1012.6
20260905202954 97 360 0.0 0.0 0.00 0.00 0.00 55 1012.8
20260905201405 97 360 0.0 0.0 0.00 0.00 0.00 54 1013.0
20260905195817 96 360 0.0 3.5 0.00 0.00 0.00 55 1013.2
20260905194226 96 44 0.9 2.6 0.00 0.00 0.00 55 1013.5
20260905192638 97 360 0.0 0.0 0.00 0.00 0.00 53 1013.5
20260905191049 97 360 0.0 0.0 0.00 0.00 0.00 52 1013.6
20260905185459 97 360 0.0 0.0 0.00 0.00 0.00 49 1013.6
20260905183911 98 360 0.0 0.0 0.00 0.00 0.00 52 1013.9
20260905182322 98 360 0.0 0.9 0.00 0.00 0.00 49 1014.2
20260905180733 97 360 0.0 0.9 0.00 0.00 0.00 49 1014.3